COSMOS 1275 DEB, 42213

Orbit data source: Space-Track

COSMOS 1275 DEB, 42213 is space debris in LEO originally from a launch on Thu, 04 Jun 1981 UTC launched from the Plesetsk Missile And Space Complex (PKMTR). Debris objects in space refer to the collection of defunct objects orbiting the Earth. Examples of debris include non-operational satellites, rocket bodies, and fragments generated from explosions, collisions, or faulty payload assembly.

Loading next visibility...
Identifier
42213, 1981-053UD
Orbit
LEO
Country
Flag of CISCIS
Related business
Manufacturer
Unknown
Mission
Spacecraft
Bus & Motor
Unknown
Mass
Unknown
Launch date (UTC)
1981-06-04 (44 years ago)
Launch vehicle
Unknown
Launch site
Plesetsk Missile And Space Complex (PKMTR)
Object type
Payload
Rocket body
Debris
Shape & HBR
Unknown shape, 0.1 m
Radar Cross Section
Small (<0.1 m²)

Expand to show TLE details & history
Last TLE update: 20 hours ago

TLE from 20 hours ago
0 COSMOS 1275 DEB
1 42213U 81053UD  25293.66205533  .00006428  00000-0  28983-2 0  9992
2 42213  82.8162 269.5515 0046544 122.3786 238.1913 14.21496344170054
Epoch: 2025-10-20T15:53Z
TLE epoch observation values (Epoch: 2025-10-20T15:53:21.580Z)
Latitude
-0.00003°
Longitude
1.85043°
Altitude
841.034 km
Speed
7.423 km/s
True Right ascension
17h 58m 12s
True Declination
0° 00' 00"
Sunlit
Object was in daylight at epoch
Visualization orbit readout
Latitude
Unknown
Longitude
Unknown
Altitude
Unknown
Speed
Unknown
Apparent Right ascension
Unknown
Apparent Declination
Unknown
Sunlit
N/A
Visualization observer readout
Local Sidereal Time
06:26:54
Azimuth
Unknown
Elevation
Unknown
Doppler factor
Unknown
Orbital elements
Apogee altitude
850.877 km
Perigee altitude
783.895 km
Semi-major axis
7,195.523 km
Eccentricity
0.00465
Inclination
82.8162°
RAAN
269.5515°
Arg. of periapsis
122.3786°
True anomaly
237.73944°
Mean anomaly
238.1913°
Eccentric anomaly
237.96523°
Mean motion
3.5559 °/min
Orbital period
101.24 mins
BSTAR
0.0028983

Documentation

Showing up to 5 results
|